"FRM_AIS_EDR_2265.DAT           ",2005-10-18T22:38:12.21 ,"1/0077755087.13711",    0,    0,  213808,"AIS","B1","B1","B1","B1","PISd",0,0,0,0,"B1", 0,15,   0, 0,    0,"AIS","N/A    ","OK ","OK ",    000599.342,    -077.669,    0034.377,    0011.356,    0058.599
"FRM_AIS_EDR_2265.DAT           ",2005-10-18T22:38:19.76 ,"1/0077755094.49310",    0,    1,  213808,"AIS","B1","B1","B1","B1","PISd",0,0,0,0,"B1", 0,15,   0, 0,    0,"AIS","N/A    ","OK ","OK ",    000592.021,    -077.256,    0034.883,    0011.392,    0058.176
"FRM_AIS_EDR_2265.DAT           ",2005-10-18T22:38:27.30 ,"1/0077755102.19374",    0,    2,  213808,"AIS","B1","B1","B1","B1","PISd",0,0,0,0,"B1", 0,15,   0, 0,    0,"AIS","N/A    ","OK ","OK ",    000584.768,    -076.839,    0035.356,    0011.426,    0057.751
"FRM_AIS_EDR_2265.DAT           ",2005-10-18T22:38:34.84 ,"1/0077755109.54973",    0,    3,  213808,"AIS","B1","B1","B1","B1","PISd",0,0,0,0,"B1", 0,15,   0, 0,    0,"AIS","N/A    ","OK ","OK ",    000577.584,    -076.420,    0035.801,    0011.457,    0057.324
"FRM_AIS_EDR_2265.DAT           ",2005-10-18T22:38:42.39 ,"1/0077755117.25036",    0,    4,  213808,"AIS","B1","B1","B1","B1","PISd",0,0,0,0,"B1", 0,15,   0, 0,    0,"AIS","N/A    ","OK ","OK ",    000570.469,    -075.999,    0036.220,    0011.487,    0056.896
"FRM_AIS_EDR_2265.DAT           ",2005-10-18T22:38:49.93 ,"1/0077755124.60636",    0,    5,  213808,"AIS","B1","B1","B1","B1","PISd",0,0,0,0,"B1", 0,15,   0, 0,    0,"AIS","N/A    ","OK ","OK ",    000563.424,    -075.575,    0036.614,    0011.515,    0056.466
"FRM_AIS_EDR_2265.DAT           ",2005-10-18T22:38:57.47 ,"1/0077755132.30699",    0,    6,  213808,"AIS","B1","B1","B1","B1","PISd",0,0,0,0,"B1", 0,15,   0, 0,    0,"AIS","N/A    ","OK ","OK ",    000556.450,    -075.149,    0036.986,    0011.542,    0056.035
"FRM_AIS_EDR_2265.DAT           ",2005-10-18T22:39:05.02 ,"1/0077755140.00762",    0,    7,  213808,"AIS","B1","B1","B1","B1","PISd",0,0,0,0,"B1", 0,15,   0, 0,    0,"AIS","N/A    ","OK ","OK ",    000549.547,    -074.722,    0037.337,    0011.568,    0055.602
"FRM_AIS_EDR_2265.DAT           ",2005-10-18T22:39:12.56 ,"1/0077755147.36362",    0,    8,  213808,"AIS","B1","B1","B1","B1","PISd",0,0,0,0,"B1", 0,15,   0, 0,    0,"AIS","N/A    ","OK ","OK ",    000542.716,    -074.291,    0037.669,    0011.592,    0055.168
"FRM_AIS_EDR_2265.DAT           ",2005-10-18T22:39:20.10 ,"1/0077755155.06425",    0,    9,  213808,"AIS","B1","B1","B1","B1","PISd",0,0,0,0,"B1", 0,15,   0, 0,    0,"AIS","N/A    ","OK ","OK ",    000535.958,    -073.859,    0037.983,    0011.615,    0054.732
"FRM_AIS_EDR_2265.DAT           ",2005-10-18T22:39:27.65 ,"1/0077755162.42024",    0,   10,  213808,"AIS","B1","B1","B1","B1","PISd",0,0,0,0,"B1", 0,15,   0, 0,    0,"AIS","N/A    ","OK ","OK ",    000529.273,    -073.425,    0038.281,    0011.637,    0054.294
"FRM_AIS_EDR_2265.DAT           ",2005-10-18T22:39:35.19 ,"1/0077755170.12088",    0,   11,  213808,"AIS","B1","B1","B1","B1","PISd",0,0,0,0,"B1", 0,15,   0, 0,    0,"AIS","N/A    ","OK ","OK ",    000522.662,    -072.989,    0038.564,    0011.658,    0053.855
"FRM_AIS_EDR_2265.DAT           ",2005-10-18T22:39:42.73 ,"1/0077755177.47687",    0,   12,  213808,"AIS","B1","B1","B1","B1","PISd",0,0,0,0,"B1", 0,15,   0, 0,    0,"AIS","N/A    ","OK ","OK ",    000516.125,    -072.551,    0038.832,    0011.678,    0053.415
"FRM_AIS_EDR_2265.DAT           ",2005-10-18T22:39:50.28 ,"1/0077755185.17751",    0,   13,  213808,"AIS","B1","B1","B1","B1","PISd",0,0,0,0,"B1", 0,15,   0, 0,    0,"AIS","N/A    ","OK ","OK ",    000509.664,    -072.111,    0039.087,    0011.697,    0052.973
"FRM_AIS_EDR_2265.DAT           ",2005-10-18T22:39:57.82 ,"1/0077755192.53350",    0,   14,  213808,"AIS","B1","B1","B1","B1","PISd",0,0,0,0,"B1", 0,15,   0, 0,    0,"AIS","N/A    ","OK ","OK ",    000503.279,    -071.670,    0039.330,    0011.715,    0052.530
"FRM_AIS_EDR_2265.DAT           ",2005-10-18T22:40:05.36 ,"1/0077755200.23413",    0,   15,  213808,"AIS","B1","B1","B1","B1","PISd",0,0,0,0,"B1", 0,15,   0, 0,    0,"AIS","N/A    ","OK ","OK ",    000496.970,    -071.226,    0039.561,    0011.732,    0052.085
"FRM_AIS_EDR_2265.DAT           ",2005-10-18T22:40:12.91 ,"1/0077755207.59013",    0,   16,  213808,"AIS","B1","B1","B1","B1","PISd",0,0,0,0,"B1", 0,15,   0, 0,    0,"AIS","N/A    ","OK ","OK ",    000490.738,    -070.781,    0039.781,    0011.749,    0051.639
"FRM_AIS_EDR_2265.DAT           ",2005-10-18T22:40:20.45 ,"1/0077755215.29076",    0,   17,  213808,"AIS","B1","B1","B1","B1","PISd",0,0,0,0,"B1", 0,15,   0, 0,    0,"AIS","N/A    ","OK ","OK ",    000484.584,    -070.334,    0039.991,    0011.765,    0051.191
"FRM_AIS_EDR_2265.DAT           ",2005-10-18T22:40:27.99 ,"1/0077755222.64675",    0,   18,  213808,"AIS","B1","B1","B1","B1","PISd",0,0,0,0,"B1", 0,15,   0, 0,    0,"AIS","N/A    ","OK ","OK ",    000478.509,    -069.885,    0040.192,    0011.781,    0050.742
"FRM_AIS_EDR_2265.DAT           ",2005-10-18T22:40:35.53 ,"1/0077755230.34739",    0,   19,  213808,"AIS","B1","B1","B1","B1","PISd",0,0,0,0,"B1", 0,15,   0, 0,    0,"AIS","N/A    ","OK ","OK ",    000472.512,    -069.435,    0040.383,    0011.795,    0050.292
"FRM_AIS_EDR_2265.DAT           ",2005-10-18T22:40:43.08 ,"1/0077755238.04802",    0,   20,  213808,"AIS","B1","B1","B1","B1","PISd",0,0,0,0,"B1", 0,15,   0, 0,    0,"AIS","N/A    ","OK ","OK ",    000466.596,    -068.983,    0040.566,    0011.809,    0049.840
"FRM_AIS_EDR_2265.DAT           ",2005-10-18T22:40:50.62 ,"1/0077755245.40401",    0,   21,  213808,"AIS","B1","B1","B1","B1","PISd",0,0,0,0,"B1", 0,15,   0, 0,    0,"AIS","N/A    ","OK ","OK ",    000460.759,    -068.529,    0040.741,    0011.823,    0049.387
"FRM_AIS_EDR_2265.DAT           ",2005-10-18T22:40:58.16 ,"1/0077755253.10465",    0,   22,  213808,"AIS","B1","B1","B1","B1","PISd",0,0,0,0,"B1", 0,15,   0, 0,    0,"AIS","N/A    ","OK ","OK ",    000455.004,    -068.074,    0040.908,    0011.836,    0048.932
"FRM_AIS_EDR_2265.DAT           ",2005-10-18T22:41:05.71 ,"1/0077755260.46064",    0,   23,  213808,"AIS","B1","B1","B1","B1","PISd",0,0,0,0,"B1", 0,15,   0, 0,    0,"AIS","N/A    ","OK ","OK ",    000449.330,    -067.617,    0041.069,    0011.849,    0048.476
"FRM_AIS_EDR_2265.DAT           ",2005-10-18T22:41:13.25 ,"1/0077755268.16127",    0,   24,  213808,"AIS","B1","B1","B1","B1","PISd",0,0,0,0,"B1", 0,15,   0, 0,    0,"AIS","N/A    ","OK ","OK ",    000443.739,    -067.159,    0041.222,    0011.861,    0048.019
"FRM_AIS_EDR_2265.DAT           ",2005-10-18T22:41:20.79 ,"1/0077755275.51727",    0,   25,  213808,"AIS","B1","B1","B1","B1","PISd",0,0,0,0,"B1", 0,15,   0, 0,    0,"AIS","N/A    ","OK ","OK ",    000438.230,    -066.699,    0041.369,    0011.873,    0047.560
"FRM_AIS_EDR_2265.DAT           ",2005-10-18T22:41:28.34 ,"1/0077755283.21790",    0,   26,  213808,"AIS","B1","B1","B1","B1","PISd",0,0,0,0,"B1", 0,15,   0, 0,    0,"AIS","N/A    ","OK ","OK ",    000432.805,    -066.238,    0041.510,    0011.885,    0047.100
"FRM_AIS_EDR_2265.DAT           ",2005-10-18T22:41:35.88 ,"1/0077755290.57390",    0,   27,  213808,"AIS","B1","B1","B1","B1","PISd",0,0,0,0,"B1", 0,15,   0, 0,    0,"AIS","N/A    ","OK ","OK ",    000427.464,    -065.775,    0041.646,    0011.896,    0046.639
"FRM_AIS_EDR_2265.DAT           ",2005-10-18T22:41:43.42 ,"1/0077755298.27453",    0,   28,  213808,"AIS","B1","B1","B1","B1","PISd",0,0,0,0,"B1", 0,15,   0, 0,    0,"AIS","N/A    ","OK ","OK ",    000422.207,    -065.311,    0041.776,    0011.906,    0046.176
"FRM_AIS_EDR_2265.DAT           ",2005-10-18T22:41:50.97 ,"1/0077755305.63052",    0,   29,  213808,"AIS","B1","B1","B1","B1","PISd",0,0,0,0,"B1", 0,15,   0, 0,    0,"AIS","N/A    ","OK ","OK ",    000417.036,    -064.845,    0041.901,    0011.917,    0045.712
"FRM_AIS_EDR_2265.DAT           ",2005-10-18T22:41:58.51 ,"1/0077755313.33116",    0,   30,  213808,"AIS","B1","B1","B1","B1","PISd",0,0,0,0,"B1", 0,15,   0, 0,    0,"AIS","N/A    ","OK ","OK ",    000411.951,    -064.378,    0042.021,    0011.927,    0045.247
"FRM_AIS_EDR_2265.DAT           ",2005-10-18T22:42:06.05 ,"1/0077755321.03179",    0,   31,  213808,"AIS","B1","B1","B1","B1","PISd",0,0,0,0,"B1", 0,15,   0, 0,    0,"AIS","N/A    ","OK ","OK ",    000406.952,    -063.910,    0042.136,    0011.936,    0044.781
"FRM_AIS_EDR_2265.DAT           ",2005-10-18T22:42:13.60 ,"1/0077755328.38778",    0,   32,  213808,"AIS","B1","B1","B1","B1","PISd",0,0,0,0,"B1", 0,15,   0, 0,    0,"AIS","N/A    ","OK ","OK ",    000402.040,    -063.440,    0042.247,    0011.946,    0044.313
"FRM_AIS_EDR_2265.DAT           ",2005-10-18T22:42:21.14 ,"1/0077755336.08842",    0,   33,  213808,"AIS","B1","B1","B1","B1","PISd",0,0,0,0,"B1", 0,15,   0, 0,    0,"AIS","N/A    ","OK ","OK ",    000397.216,    -062.969,    0042.353,    0011.955,    0043.844
"FRM_AIS_EDR_2265.DAT           ",2005-10-18T22:42:28.68 ,"1/0077755343.44441",    0,   34,  213808,"AIS","B1","B1","B1","B1","PISd",0,0,0,0,"B1", 0,15,   0, 0,    0,"AIS","N/A    ","OK ","OK ",    000392.480,    -062.496,    0042.456,    0011.964,    0043.375
"FRM_AIS_EDR_2265.DAT           ",2005-10-18T22:42:36.23 ,"1/0077755351.14504",    0,   35,  213808,"AIS","B1","B1","B1","B1","PISd",0,0,0,0,"B1", 0,15,   0, 0,    0,"AIS","N/A    ","OK ","OK ",    000387.833,    -062.023,    0042.554,    0011.973,    0042.903
"FRM_AIS_EDR_2265.DAT           ",2005-10-18T22:42:43.77 ,"1/0077755358.50104",    0,   36,  213808,"AIS","B1","B1","B1","B1","PISd",0,0,0,0,"B1", 0,15,   0, 0,    0,"AIS","N/A    ","OK ","OK ",    000383.275,    -061.548,    0042.650,    0011.981,    0042.431
"FRM_AIS_EDR_2265.DAT           ",2005-10-18T22:42:51.31 ,"1/0077755366.20167",    0,   37,  213808,"AIS","B1","B1","B1","B1","PISd",0,0,0,0,"B1", 0,15,   0, 0,    0,"AIS","N/A    ","OK ","OK ",    000378.807,    -061.072,    0042.741,    0011.989,    0041.958
"FRM_AIS_EDR_2265.DAT           ",2005-10-18T22:42:58.86 ,"1/0077755373.55766",    0,   38,  213808,"AIS","B1","B1","B1","B1","PISd",0,0,0,0,"B1", 0,15,   0, 0,    0,"AIS","N/A    ","OK ","OK ",    000374.429,    -060.595,    0042.829,    0011.997,    0041.483
"FRM_AIS_EDR_2265.DAT           ",2005-10-18T22:43:06.40 ,"1/0077755381.25830",    0,   39,  213808,"AIS","B1","B1","B1","B1","PISd",0,0,0,0,"B1", 0,15,   0, 0,    0,"AIS","N/A    ","OK ","OK ",    000370.142,    -060.116,    0042.914,    0012.005,    0041.008
"FRM_AIS_EDR_2265.DAT           ",2005-10-18T22:43:13.94 ,"1/0077755388.61429",    0,   40,  213808,"AIS","B1","B1","B1","B1","PISd",0,0,0,0,"B1", 0,15,   0, 0,    0,"AIS","N/A    ","OK ","OK ",    000365.947,    -059.636,    0042.996,    0012.012,    0040.531
"FRM_AIS_EDR_2265.DAT           ",2005-10-18T22:43:21.49 ,"1/0077755396.31492",    0,   41,  213808,"AIS","B1","B1","B1","B1","PISd",0,0,0,0,"B1", 0,15,   0, 0,    0,"AIS","N/A    ","OK ","OK ",    000361.844,    -059.156,    0043.075,    0012.019,    0040.054
"FRM_AIS_EDR_2265.DAT           ",2005-10-18T22:43:29.03 ,"1/0077755404.01556",    0,   42,  213808,"AIS","B1","B1","B1","B1","PISd",0,0,0,0,"B1", 0,15,   0, 0,    0,"AIS","N/A    ","OK ","OK ",    000357.834,    -058.674,    0043.151,    0012.027,    0039.575
"FRM_AIS_EDR_2265.DAT           ",2005-10-18T22:43:36.57 ,"1/0077755411.37155",    0,   43,  213808,"AIS","B1","B1","B1","B1","PISd",0,0,0,0,"B1", 0,15,   0, 0,    0,"AIS","N/A    ","OK ","OK ",    000353.916,    -058.191,    0043.225,    0012.034,    0039.095
"FRM_AIS_EDR_2265.DAT           ",2005-10-18T22:43:44.11 ,"1/0077755419.07218",    0,   44,  213808,"AIS","B1","B1","B1","B1","PISd",0,0,0,0,"B1", 0,15,   0, 0,    0,"AIS","N/A    ","OK ","OK ",    000350.092,    -057.707,    0043.296,    0012.040,    0038.615
"FRM_AIS_EDR_2265.DAT           ",2005-10-18T22:43:51.66 ,"1/0077755426.42818",    0,   45,  213808,"AIS","B1","B1","B1","B1","PISd",0,0,0,0,"B1", 0,15,   0, 0,    0,"AIS","N/A    ","OK ","OK ",    000346.362,    -057.222,    0043.364,    0012.047,    0038.133
"FRM_AIS_EDR_2265.DAT           ",2005-10-18T22:43:59.20 ,"1/0077755434.12881",    0,   46,  213808,"AIS","B1","B1","B1","B1","PISd",0,0,0,0,"B1", 0,15,   0, 0,    0,"AIS","N/A    ","OK ","OK ",    000342.727,    -056.736,    0043.430,    0012.053,    0037.651
"FRM_AIS_EDR_2265.DAT           ",2005-10-18T22:44:06.74 ,"1/0077755441.48481",    0,   47,  213808,"AIS","B1","B1","B1","B1","PISd",0,0,0,0,"B1", 0,15,   0, 0,    0,"AIS","N/A    ","OK ","OK ",    000339.186,    -056.249,    0043.494,    0012.060,    0037.167
"FRM_AIS_EDR_2265.DAT           ",2005-10-18T22:44:14.29 ,"1/0077755449.18544",    0,   48,  213808,"AIS","B1","B1","B1","B1","PISd",0,0,0,0,"B1", 0,15,   0, 0,    0,"AIS","N/A    ","OK ","OK ",    000335.741,    -055.761,    0043.555,    0012.066,    0036.683
"FRM_AIS_EDR_2265.DAT           ",2005-10-18T22:44:21.83 ,"1/0077755456.54143",    0,   49,  213808,"AIS","B1","B1","B1","B1","PISd",0,0,0,0,"B1", 0,15,   0, 0,    0,"AIS","N/A    ","OK ","OK ",    000332.392,    -055.272,    0043.614,    0012.072,    0036.198
"FRM_AIS_EDR_2265.DAT           ",2005-10-18T22:44:29.37 ,"1/0077755464.24207",    0,   50,  213808,"AIS","B1","B1","B1","B1","PISd",0,0,0,0,"B1", 0,15,   0, 0,    0,"AIS","N/A    ","OK ","OK ",    000329.140,    -054.782,    0043.672,    0012.078,    0035.712
"FRM_AIS_EDR_2265.DAT           ",2005-10-18T22:44:36.92 ,"1/0077755471.59806",    0,   51,  213808,"AIS","B1","B1","B1","B1","PISd",0,0,0,0,"B1", 0,15,   0, 0,    0,"AIS","N/A    ","OK ","OK ",    000325.984,    -054.292,    0043.727,    0012.083,    0035.225
"FRM_AIS_EDR_2265.DAT           ",2005-10-18T22:44:44.46 ,"1/0077755479.29869",    0,   52,  213808,"AIS","B1","B1","B1","B1","PISd",0,0,0,0,"B1", 0,15,   0, 0,    0,"AIS","N/A    ","OK ","OK ",    000322.926,    -053.800,    0043.781,    0012.089,    0034.738
"FRM_AIS_EDR_2265.DAT           ",2005-10-18T22:44:52.00 ,"1/0077755486.65469",    0,   53,  213808,"AIS","B1","B1","B1","B1","PISd",0,0,0,0,"B1", 0,15,   0, 0,    0,"AIS","N/A    ","OK ","OK ",    000319.965,    -053.308,    0043.832,    0012.094,    0034.249
"FRM_AIS_EDR_2265.DAT           ",2005-10-18T22:44:59.55 ,"1/0077755494.35532",    0,   54,  213808,"AIS","B1","B1","B1","B1","PISd",0,0,0,0,"B1", 0,15,   0, 0,    0,"AIS","N/A    ","OK ","OK ",    000317.102,    -052.815,    0043.882,    0012.100,    0033.760
"FRM_AIS_EDR_2265.DAT           ",2005-10-18T22:45:07.09 ,"1/0077755502.05595",    0,   55,  213808,"AIS","B1","B1","B1","B1","PISd",0,0,0,0,"B1", 0,15,   0, 0,    0,"AIS","N/A    ","OK ","OK ",    000314.338,    -052.321,    0043.930,    0012.105,    0033.271
"FRM_AIS_EDR_2265.DAT           ",2005-10-18T22:45:14.63 ,"1/0077755509.41195",    0,   56,  213808,"AIS","B1","B1","B1","B1","PISd",0,0,0,0,"B1", 0,15,   0, 0,    0,"AIS","N/A    ","OK ","OK ",    000311.672,    -051.826,    0043.977,    0012.110,    0032.781
"FRM_AIS_EDR_2265.DAT           ",2005-10-18T22:45:22.18 ,"1/0077755517.11258",    0,   57,  213808,"AIS","B1","B1","B1","B1","PISd",0,0,0,0,"B1", 0,15,   0, 0,    0,"AIS","N/A    ","OK ","OK ",    000309.106,    -051.331,    0044.022,    0012.115,    0032.290
"FRM_AIS_EDR_2265.DAT           ",2005-10-18T22:45:29.72 ,"1/0077755524.46857",    0,   58,  213808,"AIS","B1","B1","B1","B1","PISd",0,0,0,0,"B1", 0,15,   0, 0,    0,"AIS","N/A    ","OK ","OK ",    000306.639,    -050.835,    0044.065,    0012.120,    0031.798
"FRM_AIS_EDR_2265.DAT           ",2005-10-18T22:45:37.26 ,"1/0077755532.16921",    0,   59,  213808,"AIS","B1","B1","B1","B1","PISd",0,0,0,0,"B1", 0,15,   0, 0,    0,"AIS","N/A    ","OK ","OK ",    000304.273,    -050.338,    0044.107,    0012.125,    0031.306
"FRM_AIS_EDR_2265.DAT           ",2005-10-18T22:45:44.81 ,"1/0077755539.52520",    0,   60,  213808,"AIS","B1","B1","B1","B1","PISd",0,0,0,0,"B1", 0,15,   0, 0,    0,"AIS","N/A    ","OK ","OK ",    000302.006,    -049.841,    0044.148,    0012.130,    0030.814
"FRM_AIS_EDR_2265.DAT           ",2005-10-18T22:45:52.35 ,"1/0077755547.22583",    0,   61,  213808,"AIS","B1","B1","B1","B1","PISd",0,0,0,0,"B1", 0,15,   0, 0,    0,"AIS","N/A    ","OK ","OK ",    000299.840,    -049.343,    0044.187,    0012.134,    0030.321
"FRM_AIS_EDR_2265.DAT           ",2005-10-18T22:45:59.89 ,"1/0077755554.58183",    0,   62,  213808,"AIS","B1","B1","B1","B1","PISd",0,0,0,0,"B1", 0,15,   0, 0,    0,"AIS","N/A    ","OK ","OK ",    000297.776,    -048.845,    0044.225,    0012.139,    0029.827
"FRM_AIS_EDR_2265.DAT           ",2005-10-18T22:46:07.44 ,"1/0077755562.28246",    0,   63,  213808,"AIS","B1","B1","B1","B1","PISd",0,0,0,0,"B1", 0,15,   0, 0,    0,"AIS","N/A    ","OK ","OK ",    000295.812,    -048.346,    0044.261,    0012.144,    0029.334
"FRM_AIS_EDR_2265.DAT           ",2005-10-18T22:46:14.98 ,"1/0077755569.63845",    0,   64,  213808,"AIS","B1","B1","B1","B1","PISd",0,0,0,0,"B1", 0,15,   0, 0,    0,"AIS","N/A    ","OK ","OK ",    000293.950,    -047.846,    0044.297,    0012.148,    0028.839
"FRM_AIS_EDR_2265.DAT           ",2005-10-18T22:46:22.52 ,"1/0077755577.33909",    0,   65,  213808,"AIS","B1","B1","B1","B1","PISd",0,0,0,0,"B1", 0,15,   0, 0,    0,"AIS","N/A    ","OK ","OK ",    000292.190,    -047.346,    0044.331,    0012.152,    0028.345
"FRM_AIS_EDR_2265.DAT           ",2005-10-18T22:46:30.07 ,"1/0077755585.03972",    0,   66,  213808,"AIS","B1","B1","B1","B1","PISd",0,0,0,0,"B1", 0,15,   0, 0,    0,"AIS","N/A    ","OK ","OK ",    000290.532,    -046.846,    0044.364,    0012.156,    0027.850
"FRM_AIS_EDR_2265.DAT           ",2005-10-18T22:46:37.61 ,"1/0077755592.39571",    0,   67,  213808,"AIS","B1","B1","B1","B1","PISd",0,0,0,0,"B1", 0,15,   0, 0,    0,"AIS","N/A    ","OK ","OK ",    000288.976,    -046.345,    0044.396,    0012.161,    0027.355
"FRM_AIS_EDR_2265.DAT           ",2005-10-18T22:46:45.15 ,"1/0077755600.09635",    0,   68,  213808,"AIS","B1","B1","B1","B1","PISd",0,0,0,0,"B1", 0,15,   0, 0,    0,"AIS","N/A    ","OK ","OK ",    000287.523,    -045.844,    0044.426,    0012.165,    0026.859
"FRM_AIS_EDR_2265.DAT           ",2005-10-18T22:46:52.69 ,"1/0077755607.45234",    0,   69,  213808,"AIS","B1","B1","B1","B1","PISd",0,0,0,0,"B1", 0,15,   0, 0,    0,"AIS","N/A    ","OK ","OK ",    000286.172,    -045.342,    0044.456,    0012.169,    0026.364
"FRM_AIS_EDR_2265.DAT           ",2005-10-18T22:47:00.24 ,"1/0077755615.15297",    0,   70,  213808,"AIS","B1","B1","B1","B1","PISd",0,0,0,0,"B1", 0,15,   0, 0,    0,"AIS","N/A    ","OK ","OK ",    000284.925,    -044.840,    0044.485,    0012.172,    0025.868
"FRM_AIS_EDR_2265.DAT           ",2005-10-18T22:47:07.78 ,"1/0077755622.50897",    0,   71,  213808,"AIS","B1","B1","B1","B1","PISd",0,0,0,0,"B1", 0,15,   0, 0,    0,"AIS","N/A    ","OK ","OK ",    000283.781,    -044.338,    0044.512,    0012.176,    0025.372
"FRM_AIS_EDR_2265.DAT           ",2005-10-18T22:47:15.32 ,"1/0077755630.20960",    0,   72,  213808,"AIS","B1","B1","B1","B1","PISd",0,0,0,0,"B1", 0,15,   0, 0,    0,"AIS","N/A    ","OK ","OK ",    000282.740,    -043.835,    0044.539,    0012.180,    0024.877
"FRM_AIS_EDR_2265.DAT           ",2005-10-18T22:47:22.87 ,"1/0077755637.56559",    0,   73,  213808,"AIS","B1","B1","B1","B1","PISd",0,0,0,0,"B1", 0,15,   0, 0,    0,"AIS","N/A    ","OK ","OK ",    000281.803,    -043.332,    0044.565,    0012.184,    0024.381
"FRM_AIS_EDR_2265.DAT           ",2005-10-18T22:47:30.41 ,"1/0077755645.26623",    0,   74,  213808,"AIS","B1","B1","B1","B1","PISd",0,0,0,0,"B1", 0,15,   0, 0,    0,"AIS","N/A    ","OK ","OK ",    000280.970,    -042.829,    0044.590,    0012.188,    0023.885
"FRM_AIS_EDR_2265.DAT           ",2005-10-18T22:47:37.95 ,"1/0077755652.62222",    0,   75,  213808,"AIS","B1","B1","B1","B1","PISd",0,0,0,0,"B1", 0,15,   0, 0,    0,"AIS","N/A    ","OK ","OK ",    000280.241,    -042.326,    0044.614,    0012.191,    0023.389
"FRM_AIS_EDR_2265.DAT           ",2005-10-18T22:47:45.50 ,"1/0077755660.32285",    0,   76,  213808,"AIS","B1","B1","B1","B1","PISd",0,0,0,0,"B1", 0,15,   0, 0,    0,"AIS","N/A    ","OK ","OK ",    000279.615,    -041.822,    0044.637,    0012.195,    0022.894
"FRM_AIS_EDR_2265.DAT           ",2005-10-18T22:47:53.04 ,"1/0077755668.02349",    0,   77,  213808,"AIS","B1","B1","B1","B1","PISd",0,0,0,0,"B1", 0,15,   0, 0,    0,"AIS","N/A    ","OK ","OK ",    000279.094,    -041.319,    0044.659,    0012.199,    0022.399
"FRM_AIS_EDR_2265.DAT           ",2005-10-18T22:48:00.58 ,"1/0077755675.37948",    0,   78,  213808,"AIS","B1","B1","B1","B1","PISd",0,0,0,0,"B1", 0,15,   0, 0,    0,"AIS","N/A    ","OK ","OK ",    000278.677,    -040.815,    0044.681,    0012.202,    0021.904
"FRM_AIS_EDR_2265.DAT           ",2005-10-18T22:48:08.13 ,"1/0077755683.08011",    0,   79,  213808,"AIS","B1","B1","B1","B1","PISd",0,0,0,0,"B1", 0,15,   0, 0,    0,"AIS","N/A    ","OK ","OK ",    000278.365,    -040.311,    0044.701,    0012.206,    0021.409
"FRM_AIS_EDR_2265.DAT           ",2005-10-18T22:48:15.67 ,"1/0077755690.43611",    0,   80,  213808,"AIS","B1","B1","B1","B1","PISd",0,0,0,0,"B1", 0,15,   0, 0,    0,"AIS","N/A    ","OK ","OK ",    000278.157,    -039.807,    0044.721,    0012.209,    0020.915
"FRM_AIS_EDR_2265.DAT           ",2005-10-18T22:48:23.21 ,"1/0077755698.13674",    0,   81,  213808,"AIS","B1","B1","B1","B1","PISd",0,0,0,0,"B1", 0,15,   0, 0,    0,"AIS","N/A    ","OK ","OK ",    000278.054,    -039.303,    0044.741,    0012.212,    0020.421
"FRM_AIS_EDR_2265.DAT           ",2005-10-18T22:48:30.76 ,"1/0077755705.49273",    0,   82,  213808,"AIS","B1","B1","B1","B1","PISd",0,0,0,0,"B1", 0,15,   0, 0,    0,"AIS","N/A    ","OK ","OK ",    000278.055,    -038.799,    0044.759,    0012.215,    0019.928
"FRM_AIS_EDR_2265.DAT           ",2005-10-18T22:48:38.30 ,"1/0077755713.19337",    0,   83,  213808,"AIS","B1","B1","B1","B1","PISd",0,0,0,0,"B1", 0,15,   0, 0,    0,"AIS","N/A    ","OK ","OK ",    000278.160,    -038.296,    0044.777,    0012.219,    0019.435
"FRM_AIS_EDR_2265.DAT           ",2005-10-18T22:48:45.84 ,"1/0077755720.54936",    0,   84,  213808,"AIS","B1","B1","B1","B1","PISd",0,0,0,0,"B1", 0,15,   0, 0,    0,"AIS","N/A    ","OK ","OK ",    000278.371,    -037.792,    0044.794,    0012.222,    0018.943
"FRM_AIS_EDR_2265.DAT           ",2005-10-18T22:48:53.39 ,"1/0077755728.24999",    0,   85,  213808,"AIS","B1","B1","B1","B1","PISd",0,0,0,0,"B1", 0,15,   0, 0,    0,"AIS","N/A    ","OK ","OK ",    000278.686,    -037.288,    0044.811,    0012.225,    0018.452
"FRM_AIS_EDR_2265.DAT           ",2005-10-18T22:49:00.93 ,"1/0077755735.60599",    0,   86,  213808,"AIS","B1","B1","B1","B1","PISd",0,0,0,0,"B1", 0,15,   0, 0,    0,"AIS","N/A    ","OK ","OK ",    000279.105,    -036.784,    0044.827,    0012.228,    0017.961
"FRM_AIS_EDR_2265.DAT           ",2005-10-18T22:49:08.47 ,"1/0077755743.30662",    0,   87,  213808,"AIS","B1","B1","B1","B1","PISd",0,0,0,0,"B1", 0,15,   0, 0,    0,"AIS","N/A    ","OK ","OK ",    000279.629,    -036.281,    0044.842,    0012.231,    0017.472
"FRM_AIS_EDR_2265.DAT           ",2005-10-18T22:49:16.02 ,"1/0077755751.00726",    0,   88,  213808,"AIS","B1","B1","B1","B1","PISd",0,0,0,0,"B1", 0,15,   0, 0,    0,"AIS","N/A    ","OK ","OK ",    000280.258,    -035.778,    0044.856,    0012.234,    0016.983
"FRM_AIS_EDR_2265.DAT           ",2005-10-18T22:49:23.56 ,"1/0077755758.36325",    0,   89,  213808,"AIS","B1","B1","B1","B1","PISd",0,0,0,0,"B1", 0,15,   0, 0,    0,"AIS","N/A    ","OK ","OK ",    000280.992,    -035.275,    0044.870,    0012.237,    0016.496
"FRM_AIS_EDR_2265.DAT           ",2005-10-18T22:49:31.10 ,"1/0077755766.06388",    0,   90,  213808,"AIS","B1","B1","B1","B1","PISd",0,0,0,0,"B1", 0,15,   0, 0,    0,"AIS","N/A    ","OK ","OK ",    000281.829,    -034.772,    0044.884,    0012.240,    0016.010